Time,TemperatureF,DewpointF,PressureIn,WindDirection,WindDirectionDegrees,WindSpeedMPH,WindSpeedGustMPH,Humidity,HourlyPrecipIn,Conditions,Clouds,dailyrainin,SoftwareType,DateUTC
2013-07-20 00:00:00,50.0,35.0,-100.00,North,-999,-999.0,-999.0,56,-99.99,,,0.00,,2013-07-20 06:00:00,
2013-07-20 00:52:00,50.0,35.0,-100.00,North,-999,-999.0,-999.0,56,-99.99,,,0.00,,2013-07-20 06:52:00,
2013-07-20 01:00:00,49.0,34.0,-100.00,North,-999,-999.0,-999.0,56,-99.99,,,0.00,,2013-07-20 07:00:00,
2013-07-20 01:54:00,49.0,34.0,-100.00,North,-999,-999.0,-999.0,56,-99.99,,,0.00,,2013-07-20 07:54:00,
2013-07-20 02:00:00,48.0,-99.9,-100.00,North,-999,-999.0,-999.0,-999,-99.99,,,-99.99,,2013-07-20 08:00:00,
2013-07-20 02:52:00,48.0,-99.9,-100.00,North,-999,-999.0,-999.0,-999,-99.99,,,-99.99,,2013-07-20 08:52:00,
2013-07-20 03:00:00,48.0,33.0,-100.00,North,-999,-999.0,-999.0,56,-99.99,,,0.00,,2013-07-20 09:00:00,
2013-07-20 03:53:00,48.0,33.0,-100.00,North,-999,-999.0,-999.0,56,-99.99,,,0.00,,2013-07-20 09:53:00,
2013-07-20 04:00:00,48.0,33.0,-100.00,North,-999,-999.0,-999.0,56,-99.99,,,-99.99,,2013-07-20 10:00:00,
2013-07-20 04:52:00,48.0,33.0,-100.00,North,-999,-999.0,-999.0,56,-99.99,,,-99.99,,2013-07-20 10:52:00,
2013-07-20 05:00:00,48.0,33.0,-100.00,North,-999,-999.0,-999.0,56,-99.99,,,-99.99,,2013-07-20 11:00:00,
2013-07-20 05:52:00,48.0,33.0,-100.00,North,-999,-999.0,-999.0,56,-99.99,,,-99.99,,2013-07-20 11:52:00,
2013-07-20 06:00:00,47.0,32.0,-100.00,North,-999,-999.0,-999.0,56,-99.99,,,-99.99,,2013-07-20 12:00:00,
2013-07-20 06:52:00,47.0,32.0,-100.00,North,-999,-999.0,-999.0,56,-99.99,,,-99.99,,2013-07-20 12:52:00,
2013-07-20 07:00:00,50.0,35.0,-100.00,North,-999,-999.0,-999.0,56,-99.99,,,-99.99,,2013-07-20 13:00:00,
2013-07-20 07:53:00,50.0,35.0,-100.00,North,-999,-999.0,-999.0,56,-99.99,,,-99.99,,2013-07-20 13:53:00,
2013-07-20 08:00:00,58.0,42.0,-100.00,North,-999,-999.0,-999.0,56,-99.99,,,-99.99,,2013-07-20 14:00:00,
2013-07-20 08:53:00,58.0,42.0,-100.00,North,-999,-999.0,-999.0,56,-99.99,,,-99.99,,2013-07-20 14:53:00,
2013-07-20 09:00:00,62.0,46.0,-100.00,North,-999,-999.0,-999.0,55,-99.99,,,-99.99,,2013-07-20 15:00:00,
2013-07-20 09:53:00,62.0,46.0,-100.00,North,-999,-999.0,-999.0,55,-99.99,,,-99.99,,2013-07-20 15:53:00,
2013-07-20 10:00:00,68.0,52.0,-100.00,North,-999,-999.0,-999.0,55,-99.99,,,0.00,,2013-07-20 16:00:00,
2013-07-20 10:52:00,68.0,52.0,-100.00,North,-999,-999.0,-999.0,55,-99.99,,,0.00,,2013-07-20 16:52:00,
2013-07-20 11:00:00,63.0,46.0,-100.00,North,-999,-999.0,-999.0,55,-99.99,,,0.00,,2013-07-20 17:00:00,
2013-07-20 11:53:00,63.0,46.0,-100.00,North,-999,-999.0,-999.0,55,-99.99,,,0.00,,2013-07-20 17:53:00,
2013-07-20 12:00:00,63.0,47.0,-100.00,North,-999,-999.0,-999.0,55,-99.99,,,0.00,,2013-07-20 18:00:00,
2013-07-20 12:59:00,63.0,47.0,-100.00,North,-999,-999.0,-999.0,55,-99.99,,,0.00,,2013-07-20 18:59:00,
2013-07-20 15:00:00,66.0,49.0,-100.00,North,-999,-999.0,-999.0,55,-99.99,,,0.00,,2013-07-20 21:00:00,
2013-07-20 15:56:00,66.0,49.0,-100.00,North,-999,-999.0,-999.0,55,-99.99,,,0.00,,2013-07-20 21:56:00,
2013-07-20 16:00:00,62.0,46.0,-100.00,North,-999,-999.0,-999.0,55,-99.99,,,0.00,,2013-07-20 22:00:00,
2013-07-20 17:00:00,61.0,45.0,-100.00,North,-999,-999.0,-999.0,56,-99.99,,,0.00,,2013-07-20 23:00:00,
2013-07-20 17:56:00,61.0,45.0,-100.00,North,-999,-999.0,-999.0,56,-99.99,,,0.00,,2013-07-20 23:56:00,
2013-07-20 18:00:00,58.0,42.0,-100.00,North,-999,-999.0,-999.0,56,-99.99,,,0.00,,2013-07-21 00:00:00,
2013-07-20 19:00:00,57.0,42.0,-100.00,North,-999,-999.0,-999.0,56,-99.99,,,0.00,,2013-07-21 01:00:00,
2013-07-20 19:59:00,57.0,42.0,-100.00,North,-999,-999.0,-999.0,56,-99.99,,,0.00,,2013-07-21 01:59:00,
2013-07-20 20:00:00,55.0,39.0,-100.00,North,-999,-999.0,-999.0,55,-99.99,,,0.00,,2013-07-21 02:00:00,
2013-07-20 20:58:00,55.0,39.0,-100.00,North,-999,-999.0,-999.0,55,-99.99,,,0.00,,2013-07-21 02:58:00,
2013-07-20 21:00:00,52.0,37.0,-100.00,North,-999,-999.0,-999.0,57,-99.99,,,0.00,,2013-07-21 03:00:00,
2013-07-20 22:00:00,51.0,36.0,-100.00,North,-999,-999.0,-999.0,56,-99.99,,,0.00,,2013-07-21 04:00:00,
2013-07-20 22:53:00,51.0,36.0,-100.00,North,-999,-999.0,-999.0,56,-99.99,,,0.00,,2013-07-21 04:53:00,
2013-07-20 23:00:00,50.0,35.0,-100.00,North,-999,-999.0,-999.0,56,-99.99,,,0.00,,2013-07-21 05:00:00,
2013-07-20 23:52:00,50.0,35.0,-100.00,North,-999,-999.0,-999.0,56,-99.99,,,0.00,,2013-07-21 05:52:00,